Change the Weather History Date:

Tuesday, March 26, 2013

  Actual Average Record
Temperature  
Mean Temperature 28 °F -  
Max Temperature 44 °F - - ()
Min Temperature 13 °F - - ()
Degree Days  
Heating Degree Days 36    
Moisture  
Dew Point 11 °F    
Average Humidity 49    
Maximum Humidity 74    
Minimum Humidity 26    
Precipitation  
Precipitation 0.03 in - - ()
Sea Level Pressure  
Sea Level Pressure 30.07 in    
Wind  
Wind Speed 4 mph ()    
Max Wind Speed 9 mph    
Max Gust Speed -    
T = Trace of Precipitation, MM = Missing Value Source: Averaged Metar Reports

Daily Weather History Graph

Daily Weather History Graph

Search for Another Location

Airport or City:

Trip Planner

Search our weather history database for the weather conditions in past years. The results will help you decide how hot, cold, wet, or windy it might be!

Date:

Astronomy

Mar. 26, 2013 Rise Set
Actual Time 7:30 AM MDT 8:05 PM MDT
Civil Twilight 6:57 AM MDT 8:39 PM MDT
Nautical Twilight 6:17 AM MDT 9:19 PM MDT
Astronomical Twilight 5:35 AM MDT 10:01 PM MDT
Moon 7:50 PM MDT (3/26) 6:51 AM MDT (3/26)
Length of Visible Light 13h 42m
Length of Day
12h 35m
Waxing Gibbous, 99% of the Moon is Illuminated
Mar 26
Waxing Gibbous
Mar 27
Full
Apr 2
Last Quarter
Apr 10
New
Apr 18
First Quarter

Hourly Weather History & Observations

Time (MDT) Temp. Windchill Dew Point Humidity Pressure Visibility Wind Dir Wind Speed Gust Speed Precip Events Conditions
12:00 AM 24.6 °F - 10.0 °F 54% 30.08 in - WSW 2.3 mph - N/A   Unknown
1:00 AM 23.9 °F 18.0 °F 10.0 °F 56% 30.08 in - WSW 4.6 mph - N/A   Unknown
2:00 AM 21.9 °F 17.2 °F 9.9 °F 60% 30.09 in - WSW 3.5 mph - N/A   Unknown
3:00 AM 20.3 °F 15.4 °F 9.7 °F 64% 30.08 in - WSW 3.5 mph - N/A   Unknown
4:00 AM 18.7 °F - 8.8 °F 65% 30.09 in - West 1.2 mph - N/A   Unknown
6:00 AM 15.8 °F 8.6 °F 7.9 °F 71% 30.11 in - WSW 4.6 mph - N/A   Unknown
7:00 AM 14.4 °F 8.6 °F 6.6 °F 71% 30.13 in - SW 3.5 mph - N/A   Unknown
8:00 AM 13.5 °F 5.8 °F 6.4 °F 74% 30.17 in - SW 4.6 mph - N/A   Unknown
9:00 AM 16.7 °F 9.6 °F 6.6 °F 65% 30.16 in - SW 4.6 mph - N/A   Unknown
10:00 AM 20.7 °F 11.9 °F 7.2 °F 56% 30.14 in - WSW 6.9 mph - N/A   Unknown
11:00 AM 27.0 °F 20.5 °F 9.5 °F 48% 30.10 in - WSW 5.8 mph - N/A   Unknown
12:00 PM 33.1 °F 27.7 °F 9.7 °F 38% 30.07 in - SW 5.8 mph - N/A   Unknown
1:00 PM 38.3 °F 33.2 °F 11.5 °F 33% 30.04 in - SW 6.9 mph - N/A   Unknown
2:00 PM 41.2 °F 36.6 °F 11.8 °F 30% 30.01 in - SW 6.9 mph - N/A   Unknown
3:00 PM 42.6 °F 37.8 °F 11.1 °F 28% 30.00 in - SW 8.1 mph - N/A   Unknown
4:00 PM 44.1 °F 39.5 °F 12.0 °F 27% 29.99 in - SW 8.1 mph - N/A   Unknown
5:00 PM 44.1 °F 39.0 °F 11.3 °F 26% 30.00 in - SW 9.2 mph - N/A   Unknown
6:00 PM 43.9 °F 39.9 °F 12.9 °F 29% 30.00 in - SW 6.9 mph - N/A   Unknown
7:00 PM 41.9 °F 39.0 °F 12.7 °F 31% 30.01 in - West 4.6 mph - N/A   Unknown
8:00 PM 36.7 °F 34.1 °F 14.7 °F 41% 30.03 in - WSW 3.5 mph - N/A   Unknown
9:00 PM 33.4 °F - 14.9 °F 47% 30.04 in - WSW 2.3 mph - N/A   Unknown
10:00 PM 29.8 °F 26.3 °F 16.7 °F 58% 30.05 in - SW 3.5 mph - N/A   Unknown
11:00 PM 28.0 °F - 16.5 °F 62% 30.04 in - WSW 2.3 mph - N/A   Unknown